Location: Unspecified
(42.7170°S, 0.0000°E)
Time: 01:08:55
(UTC+00:00)

N. Korean satellite - Visible Passes

Search period start: 22 May 2019 00:00
Search period end: 01 June 2019 00:00
Orbit: 457 x 508 km, 97.2° (Epoch: 21 May)

Date Brightness Start Highest point End Pass type
(mag) Time Alt. Az. Time Alt. Az. Time Alt. Az.
22 May 8.4 04:39:00 10° NE 04:42:01 28° ESE 04:42:26 27° ESE visible
22 May 8.1 06:13:08 10° NW 06:15:28 17° W 06:16:44 15° WSW visible
22 May 7.3 17:37:33 10° SSE 17:40:57 34° E 17:44:23 10° NNE visible
22 May 9.5 19:11:40 10° SSW 19:14:07 17° WSW 19:16:33 10° WNW visible
23 May 9.5 04:15:12 10° ENE 04:17:04 15° ESE 04:17:04 15° ESE visible
23 May 7.1 05:47:08 10° NNW 05:50:20 34° W 05:51:22 28° WSW visible
23 May 8.2 17:13:16 10° SE 17:15:50 17° E 17:18:23 10° NE visible
23 May 8.4 18:45:59 10° S 18:49:18 31° WSW 18:52:38 10° NW visible
24 May 6.3 05:21:48 10° N 05:25:16 76° WNW 05:26:01 52° SSW visible
24 May 7.0 18:20:43 10° S 18:24:25 65° WSW 18:28:06 10° NNW visible
25 May 7.4 04:56:57 10° NNE 05:00:19 48° ESE 05:00:39 46° SE visible
25 May 8.6 06:33:47 10° W 06:34:03 10° W 06:34:19 10° W visible
25 May 6.7 17:55:44 10° SSE 17:59:26 59° E 18:03:07 10° N visible
25 May 9.9 19:31:25 10° SW 19:32:20 11° WSW 19:33:16 10° WSW visible
26 May 8.8 04:32:35 10° NE 04:35:18 24° ESE 04:35:18 24° ESE visible
26 May 7.9 06:06:09 10° NW 06:08:49 20° W 06:09:37 19° WSW visible
26 May 7.6 17:31:04 10° SE 17:34:22 29° E 17:37:38 10° NNE visible
26 May 9.2 19:04:49 10° SSW 19:07:35 20° WSW 19:10:21 10° WNW visible
27 May 9.8 04:09:03 10° E 04:09:58 12° ESE 04:09:58 12° ESE visible
27 May 6.9 05:40:22 10° N 05:43:41 41° W 05:44:16 38° WSW visible
27 May 8.4 17:06:58 10° SE 17:09:12 15° E 17:11:25 10° NE visible
27 May 8.1 18:39:28 11° S 18:42:45 37° WSW 18:46:14 10° NW visible
28 May 6.4 05:15:09 10° NNE 05:18:39 87° ESE 05:18:55 75° S visible
28 May 6.7 18:14:17 11° S 18:17:50 79° WSW 18:21:35 10° NNW visible
29 May 7.8 04:50:25 10° NE 04:53:34 39° ESE 04:53:34 39° ESE visible
29 May 8.4 06:25:49 10° WNW 06:27:21 12° W 06:27:54 12° W visible
29 May 6.9 17:49:09 10° SSE 17:52:49 49° E 17:56:28 10° N visible
29 May 9.7 19:24:05 10° SW 19:25:48 13° WSW 19:27:31 10° W visible
30 May 9.2 04:26:11 10° ENE 04:28:15 20° E 04:28:15 20° E visible
30 May 7.6 05:59:13 10° NNW 06:02:08 24° W 06:02:33 24° W visible
30 May 7.8 17:24:35 10° SE 17:27:43 24° E 17:30:50 10° NNE visible
30 May 9.0 18:58:14 11° SSW 19:01:02 23° WSW 19:04:03 10° WNW visible
31 May 6.6 05:33:35 10° N 05:37:01 51° W 05:37:13 50° W visible
31 May 7.7 18:33:01 13° S 18:36:10 45° WSW 18:39:46 10° NNW visible
